Weather History for Warrensburg, MO

Change the Weather History Date:

Saturday, October 13, 2012

  Actual Average (KSZL) Record (KSZL)
Temperature  
Mean Temperature 60 °F -  
Max Temperature 66 °F 66 °F 82 °F (1996)
Min Temperature 55 °F 46 °F 30 °F (2006)
Degree Days  
Heating Degree Days 4    
Growing Degree Days 10 (Base 50)    
Moisture  
Dew Point 60 °F    
Average Humidity 92    
Maximum Humidity 94    
Minimum Humidity 83    
Precipitation  
Precipitation 0.01 in - - ()
Sea Level Pressure  
Sea Level Pressure 29.90 in    
Wind  
Wind Speed 9 mph (SSE)    
Max Wind Speed 18 mph    
Max Gust Speed 18 mph    
Visibility 8 miles    
Events Rain , Thunderstorm    
Averages and records for this station are not official NWS values.
T = Trace of Precipitation, MM = Missing Value Source: NWS Daily Summary

Daily Weather History Graph

Daily Weather History Graph

Search for Another Location

Airport:

Trip Planner

Search our weather history database for the weather conditions in past years. The results will help you decide how hot, cold, wet, or windy it might be!

Date:

Astronomy

Oct. 13, 2012 Rise Set
Actual Time 7:23 AM CDT 6:38 PM CDT
Civil Twilight 6:56 AM CDT 7:05 PM CDT
Nautical Twilight 6:25 AM CDT 7:36 PM CDT
Astronomical Twilight 5:54 AM CDT 8:07 PM CDT
Moon 5:14 AM CDT (10/13) 5:22 PM CDT (10/13)
Length of Visible Light 12h 09m
Length of Day
11h 15m
Waning Crescent, 5% of the Moon is Illuminated
Oct 13
Waning Crescent
Oct 15
New
Oct 21
First Quarter
Oct 29
Full
Nov 6
Last Quarter

Hourly Weather History & Observations

Time (CDT) Temp. Dew Point Humidity Pressure Visibility Wind Dir Wind Speed Gust Speed Precip Events Conditions
12:15 AM 55.4 °F 53.6 °F 94% 30.08 in 10.0 mi SSE 8.1 mph - N/A Thunderstorm Overcast
12:35 AM 55.4 °F 53.6 °F 94% 30.08 in 10.0 mi SSE 4.6 mph - N/A   Overcast
12:55 AM 55.4 °F 53.6 °F 94% 30.08 in 10.0 mi South 3.5 mph - N/A Thunderstorm Overcast
1:15 AM 55.4 °F 53.6 °F 94% 30.07 in 10.0 mi SSE 6.9 mph - N/A Thunderstorm Unknown
1:35 AM 57.2 °F 53.6 °F 88% 30.05 in 10.0 mi SSE 8.1 mph - N/A Rain , Thunderstorm Thunderstorms and Rain
2:15 AM 57.2 °F 55.4 °F 94% 30.03 in 10.0 mi SE 6.9 mph - N/A Thunderstorm Mostly Cloudy
2:35 AM 57.2 °F 55.4 °F 94% 30.02 in 10.0 mi SSE 8.1 mph - N/A Thunderstorm Overcast
2:55 AM 57.2 °F 55.4 °F 94% 30.03 in 10.0 mi South 9.2 mph - N/A Thunderstorm Overcast
3:15 AM 59.0 °F 55.4 °F 88% 30.03 in 10.0 mi South 5.8 mph - N/A Thunderstorm Overcast
3:35 AM 59.0 °F 55.4 °F 88% 30.01 in 10.0 mi SSE 8.1 mph - N/A Thunderstorm Overcast
3:55 AM 59.0 °F 55.4 °F 88% 30.00 in 10.0 mi South 9.2 mph - N/A Thunderstorm Overcast
5:15 AM 60.8 °F 59.0 °F 94% 30.00 in 7.0 mi South 10.4 mph - N/A   Overcast
5:35 AM 60.8 °F 59.0 °F 94% 29.99 in 7.0 mi SSE 9.2 mph - N/A   Light Drizzle
5:55 AM 60.8 °F 59.0 °F 94% 29.98 in 10.0 mi SSE 10.4 mph - N/A   Mostly Cloudy
6:15 AM 60.8 °F 59.0 °F 94% 29.99 in 10.0 mi South 8.1 mph - N/A   Overcast
6:35 AM 60.8 °F 59.0 °F 94% 30.00 in 10.0 mi South 8.1 mph - N/A   Overcast
7:15 AM 60.8 °F 59.0 °F 94% 29.99 in 10.0 mi SSE 9.2 mph - N/A   Overcast
7:55 AM 60.8 °F 59.0 °F 94% 29.98 in 10.0 mi SSE 10.4 mph - N/A   Overcast
8:55 AM 62.6 °F 59.0 °F 88% 29.96 in 10.0 mi South 9.2 mph - 0.01 in   Mostly Cloudy
9:15 AM 62.6 °F 59.0 °F 88% 29.96 in 10.0 mi South 10.4 mph - N/A   Overcast
9:35 AM 64.4 °F 60.8 °F 88% 29.96 in 10.0 mi South 11.5 mph 18.4 mph N/A   Overcast
9:55 AM 64.4 °F 60.8 °F 88% 29.96 in 10.0 mi South 12.7 mph - N/A   Mostly Cloudy
10:15 AM 66.2 °F 60.8 °F 83% 29.96 in 10.0 mi South 12.7 mph 17.3 mph N/A   Overcast
11:55 AM 64.4 °F 62.6 °F 94% 29.94 in 10.0 mi South 6.9 mph - N/A Rain , Thunderstorm Light Thunderstorms and Rain
12:15 PM 64.4 °F 62.6 °F 94% 29.94 in 7.0 mi SSE 8.1 mph - N/A Rain , Thunderstorm Light Thunderstorms and Rain
12:35 PM 64.4 °F 62.6 °F 94% 29.88 in 5.0 mi SE 18.4 mph - N/A Rain , Thunderstorm Light Thunderstorms and Rain
12:55 PM 64.4 °F 62.6 °F 94% 29.89 in 5.0 mi South 12.7 mph 16.1 mph N/A Rain Light Rain
1:15 PM 64.4 °F 62.6 °F 94% 29.88 in 7.0 mi SSE 12.7 mph - N/A   Light Drizzle
1:35 PM 64.4 °F 62.6 °F 94% 29.85 in 7.0 mi SE 15.0 mph 18.4 mph N/A Rain Rain
2:15 PM 64.4 °F 62.6 °F 94% 29.86 in 4.0 mi SSE 10.4 mph - N/A Rain , Thunderstorm Light Thunderstorms and Rain
2:35 PM 64.4 °F 62.6 °F 94% 29.83 in 4.0 mi SE 12.7 mph - N/A Rain , Thunderstorm Light Thunderstorms and Rain
2:55 PM 64.4 °F 62.6 °F 94% 29.83 in 5.0 mi SE 11.5 mph - N/A Rain Light Rain
3:15 PM 64.4 °F 62.6 °F 94% 29.82 in 5.0 mi SE 10.4 mph - N/A   Drizzle
3:35 PM 64.4 °F 62.6 °F 94% 29.82 in 7.0 mi SE 11.5 mph 16.1 mph N/A Rain , Thunderstorm Light Thunderstorms and Rain
3:55 PM 66.2 °F 62.6 °F 88% 29.82 in 7.0 mi SE 11.5 mph - N/A Rain , Thunderstorm Thunderstorms and Rain
4:15 PM 64.4 °F 62.6 °F 94% 29.80 in 2.5 mi SE 10.4 mph - N/A Rain , Thunderstorm Thunderstorms and Rain
4:55 PM 66.2 °F 62.6 °F 88% 29.80 in 7.0 mi SE 8.1 mph - N/A Rain , Thunderstorm Light Thunderstorms and Rain
5:15 PM 64.4 °F 62.6 °F 94% 29.80 in 4.0 mi SE 8.1 mph - N/A Rain , Thunderstorm Light Thunderstorms and Rain
5:35 PM 64.4 °F 62.6 °F 94% 29.79 in 5.0 mi SE 6.9 mph - N/A Rain Light Rain
6:15 PM 66.2 °F 62.6 °F 88% 29.78 in 10.0 mi SE 9.2 mph - N/A Rain Light Rain
6:35 PM 66.2 °F 62.6 °F 88% 29.78 in 7.0 mi SE 10.4 mph - N/A   Light Drizzle
6:55 PM 66.2 °F 62.6 °F 88% 29.75 in 10.0 mi SE 10.4 mph - N/A   Light Drizzle
8:35 PM 66.2 °F 62.6 °F 88% 29.73 in 10.0 mi SSE 10.4 mph - N/A Rain Light Rain
8:55 PM 66.2 °F 62.6 °F 88% 29.74 in 10.0 mi SSE 15.0 mph - N/A Rain , Thunderstorm Rain
9:55 PM 64.4 °F 60.8 °F 88% 29.73 in 10.0 mi SSE 11.5 mph - N/A Rain , Thunderstorm Light Thunderstorms and Rain
10:15 PM 62.6 °F 60.8 °F 94% 29.70 in 10.0 mi SE 12.7 mph 18.4 mph N/A Rain Light Rain
10:35 PM 62.6 °F 59.0 °F 88% 29.69 in 10.0 mi SE 12.7 mph - N/A   Scattered Clouds
10:55 PM 62.6 °F 59.0 °F 88% 29.68 in 10.0 mi SE 10.4 mph - N/A   Mostly Cloudy
11:35 PM 62.6 °F 60.8 °F 94% 29.69 in 10.0 mi SE 11.5 mph 16.1 mph N/A   Overcast